Find Starlink 5836

NORAD ID: 56386 Int'l Des: 2023-061 Owner: SPXS Country: US Constellation: starlink operational
LEOCIRCULAR

現在のビュー

3D地球を読み込み中...

About Starlink 5836

Starlink 5836 (NORAD 56386) is a starlink constellation satellite (v1.5) launched May 4, 2023 by SPXS of US. It operates in LEO, CIRCULAR orbit with a mass of 305.00 kg.

Starlink 5836について

説明を読み込み中...

次回通過

Passes for default location (London). Set your location on the main map for personalized predictions.

高度履歴

Loading altitude history...

軌道要素

1 56386U 23061N 26159.94902147 .00002013 00000-0 82648-4 0 9997
2 56386 43.0041 42.7638 0001522 268.2197 91.8481 15.27584828170703
Epoch: Jun 8, 2026 • Age: 32 hours

現在のステータス

高度 485.9 km
速度 7.63 km/s
衛星直下点 37.11°N, 162.68°E
打ち上げ日 May 4, 2023
運用期間 3 years
タイプ internet

技術仕様

分類 Payload
質量 305.00 kg
乾燥質量 290.00 kg
総質量 305.00 kg
長さ 0.20 m
直径 2.80 m
スパン 9.00 m
形状 Box + pan
製造者 SPXS
バスタイプ Starlink
フェーズステータス In Orbit
所有者/国 SPXS/US

Most Searched